Regional Weather Roundup
Issued by NWS

Home | Current Version | Previous Version | Text Only | Print | Product List | Glossary Off
Versions: 1 2 3 4 5 6 7 8 9 10 11 12 13 14 15 16 17 18 19 20 21 22 23 24 25 26 27 28 29 30 31 32 33 34 35 36 37 38 39 40 41 42 43 44 45 46 47 48 49 50

000
ASUS43 KTOP 261208
RWRKS

WEATHER ROUNDUP FOR KANSAS
NATIONAL WEATHER SERVICE GOODLAND KS
700 AM CDT WED JUL 26 2017

NOTE:  "FAIR" INDICATES FEW OR NO CLOUDS BELOW 12,000 FEET WITH NO
SIGNIFICANT WEATHER AND/OR OBSTRUCTIONS TO VISIBILITY.

KSZ001>006-013>018-027>032-041>047-261300-
NORTHWEST KANSAS

CITY           SKY/WX    TMP DP  RH WIND       PRES   REMARKS
GOODLAND       CLOUDY    71  64  78 NW16      30.01R
6HR MIN TEMP:  70; 6HR MAX TEMP:  74;

HAYS           CLOUDY    80  69  69 S10       29.91R
HILL CITY      MOCLDY    75  70  84 E7        29.91R
6HR MIN TEMP:  75; 6HR MAX TEMP:  87; 6HR PCP: TRACE;

RUSSELL        CLOUDY    77  70  79 SE16      29.91S
6HR MIN TEMP:  77; 6HR MAX TEMP:  85; 6HR PCP:  0.07;

$$

KSZ061>065-074>080-084>089-261300-
SOUTHWEST KANSAS

CITY           SKY/WX    TMP DP  RH WIND       PRES   REMARKS
DODGE CITY     CLEAR     78  64  61 S13       29.96S
6HR MIN TEMP:  78; 6HR MAX TEMP:  84;

ELKHART          N/A     73  51  46 W7          N/A
GARDEN CITY    PTCLDY    77  62  59 SW14      29.96R
6HR MIN TEMP:  77; 6HR MAX TEMP:  83;

GREAT BEND     CLOUDY    80  69  69 S15       29.92S
LIBERAL        CLEAR     77  62  59 SW14      30.01R
PRATT          MOCLDY    76  65  67 S17       29.95S
6HR MIN TEMP:  76; 6HR MAX TEMP:  82;

$$

KSZ066>073-081>083-090>101-261300-
SOUTHEAST KANSAS

CITY           SKY/WX    TMP DP  RH WIND       PRES   REMARKS
CHANUTE        PTCLDY    78  73  84 MISG      30.02S
6HR MIN TEMP:  77; 6HR MAX TEMP:  80;

COFFEYVILLE    PTCLDY    78  73  84 S8        30.02F
6HR MIN TEMP:  77; 6HR MAX TEMP:  80;

HUTCHINSON     CLOUDY    81  68  64 S15       29.95S
6HR MIN TEMP:  81; 6HR MAX TEMP:  85;

MEDICINE LODGE   N/A     79  66  64 S9        29.95S
NEWTON         CLOUDY    79  70  74 S13       29.98S
PARSONS        CLOUDY    77  73  87 S5        30.03S
6HR MIN TEMP:  77; 6HR MAX TEMP:  81;

WICHITA INTL   MOCLDY    80  71  74 S15       29.96F
6HR MIN TEMP:  80; 6HR MAX TEMP:  84;

WICHITA JABRA  CLOUDY    80  70  71 S14       29.97S
6HR MIN TEMP:  79; 6HR MAX TEMP:  83;

WICHITA MCCONL PTCLDY    79  69  72 S17       29.97F
WINFIELD       PTCLDY    77  71  82 S10       30.00S
6HR MIN TEMP:  77; 6HR MAX TEMP:  83;

$$

KSZ007>012-019>026-033>040-048>060-102>105-261300-
NORTHEAST KANSAS

CITY           SKY/WX    TMP DP  RH WIND       PRES   REMARKS
CONCORDIA      CLOUDY    77  74  90 NE3       29.98R
6HR MIN TEMP:  77; 6HR MAX TEMP:  82; 6HR PCP: TRACE;

EMPORIA        CLOUDY    76  72  87 S12       29.99S
6HR MIN TEMP:  76; 6HR MAX TEMP:  80;

LAWRENCE       CLOUDY    78  74  87 SE6       29.99S
6HR MIN TEMP:  75; 6HR MAX TEMP:  80;

MANHATTAN      CLOUDY    77  71  82 SW3       29.96F
6HR MIN TEMP:  75; 6HR MAX TEMP:  84; 6HR PCP:  0.08;

MARYSVILLE     TSTM      73  72  94 SE3       30.00R
OLATHE IND     CLOUDY    77  73  87 S7        30.02R
6HR MIN TEMP:  77; 6HR MAX TEMP:  80;

OLATHE EXE     MOCLDY    76  74  93 S7        30.02S
6HR MIN TEMP:  75; 6HR MAX TEMP:  79;

SALINA         CLOUDY    81  73  76 SW3       29.96R
6HR MIN TEMP:  80; 6HR MAX TEMP:  87; 6HR PCP:  0.60;

TOPEKA BILLARD CLOUDY    79  75  87 SE5       29.98S
6HR MIN TEMP:  79; 6HR MAX TEMP:  81;

TOPEKA FORBES  CLOUDY    79  74  84 S9        29.98S
6HR MIN TEMP:  78; 6HR MAX TEMP:  80;

$$




USA.gov is the U.S. government's official web portal to all federal, state and local government web resources and services.